Temperature
23 24 25 25 25 25 24 22 22 22 21 21 21 21 21 21 22 22 22 22 22 22 21 21 21 21 21 20 20 20 19 19 19 18 18 17 17 17 17 17 17 16 16 16
22 24 25 25 25 25 24 24 23 22 22 21 21 21 21 21 21 21 21 21 21 21 21 21 21 21 20 20 20 20 19 19 18 18 17 17 17 17 17 17 16 16 16 16
21 22 23 23 24 24 24 24 23 22 21 21 20 20 20 21 21 20 20 21 21 20 21 21 21 21 20 20 19 19 19 18 18 17 17 17 17 17 17 16 16 16 16 16
19 21 22 22 23 24 24 23 22 22 21 21 21 21 21 21 21 21 20 20 20 20 20 20 20 20 20 19 19 18 18 18 17 17 17 17 16 16 16 16 16 15 15 15
18 20 21 22 23 23 22 21 21 21 20 20 21 20 19 20 21 21 20 20 20 20 20 20 19 19 19 19 18 18 18 17 17 17 17 16 16 16 16 16 15 15 15 15
18 20 20 21 22 23 22 20 20 20 19 19 20 18 18 19 20 20 20 20 19 19 19 19 19 19 19 18 18 18 18 17 17 17 16 16 16 16 15 15 15 15 14 14
18 19 19 20 21 22 21 19 19 20 19 19 18 18 19 19 19 19 19 19 19 19 18 18 18 18 18 18 18 17 17 17 17 16 16 16 16 15 15 15 15 14 14 14
17 18 19 19 20 19 18 19 19 19 19 19 19 19 19 19 19 19 19 19 18 18 18 18 18 17 17 17 17 17 17 17 16 16 16 15 15 15 15 15 14 14 14 14
16 17 18 19 19 20 20 19 19 19 19 19 18 18 18 18 18 18 18 18 18 18 17 17 17 17 17 17 17 16 16 16 16 16 15 15 15 15 15 14 14 14 13 13
16 17 17 18 19 19 19 19 19 19 18 18 18 18 18 18 18 17 17 17 17 17 17 16 16 16 16 16 16 16 16 16 15 15 15 15 14 14 14 14 14 13 13 13
15 16 17 18 18 18 18 18 18 18 18 18 18 17 17 17 17 17 17 17 17 16 16 16 16 16 15 15 15 15 15 15 15 15 14 14 14 14 14 14 13 13 13 13
15 16 15 17 17 18 18 17 17 17 17 17 17 17 17 17 17 16 16 16 16 16 15 15 15 15 15 15 15 15 15 14 14 14 14 14 14 14 13 13 13 13 13 12
17 17 17 17 17 17 17 17 17 17 17 16 16 16 16 16 16 16 16 15 15 15 15 15 14 14 14 14 14 14 14 14 14 14 13 13 13 13 13 13 13 13 12 12
17 17 16 16 16 17 17 16 16 16 16 16 16 16 16 16 16 15 15 15 15 14 14 14 14 14 14 14 14 13 13 13 13 13 13 13 13 13 13 13 13 12 12 12
17 17 16 16 16 16 16 16 16 16 16 16 16 15 15 15 15 15 15 14 14 14 14 14 13 13 13 13 13 13 13 13 13 13 13 13 13 13 12 12 12 12 12 12
16 16 16 15 15 15 15 15 15 15 15 15 15 15 15 15 15 14 14 14 14 14 13 13 13 13 13 13 13 13 13 13 13 13 12 12 12 12 12 12 12 12 12 12
15 15 14 14 15 15 15 15 15 14 14 14 14 14 14 14 14 14 14 14 13 13 13 13 13 12 12 12 12 12 12 12 12 12 12 12 12 12 12 12 12 12 12 11
15 15 15 14 14 14 14 14 14 14 14 14 14 14 14 14 13 13 13 13 13 13 12 12 12 12 12 12 12 12 12 12 12 12 12 12 12 12 11 12 11 11 11 11
14 14 14 14 14 14 14 14 14 14 14 13 13 13 13 13 13 13 13 12 12 12 12 12 12 12 12 12 11 11 11 11 11 11 11 11 11 11 11 11 11 11 11 11
14 14 14 13 13 13 13 13 13 13 13 13 13 13 13 13 13 12 12 12 12 12 12 12 12 11 11 11 11 11 11 11 11 11 11 11 11 11 11 11 11 11 11 10
13 13 13 13 13 13 13 13 13 13 13 13 13 13 12 12 12 12 12 12 12 12 11 11 11 11 11 11 11 11 11 11 11 11 11 10 10 10 10 10 10 10 10 10
13 13 13 13 13 13 13 13 13 13 13 13 12 12 12 12 12 12 12 12 11 11 11 11 11 11 11 11 11 10 10 10 10 10 10 10 10 10 10 10 10 10 10 10
12 12 12 12 12 12 13 13 13 12 12 12 12 12 12 12 12 11 11 11 11 11 11 11 11 10 10 10 10 10 10 10 10 10 10 10 10 10 10 10 10 10 10 10
12 12 12 12 12 12 12 12 12 12 12 12 12 12 12 11 11 11 11 11 11 11 11 10 10 10 10 10 10 10 10 10 10 10 10 10 10 10 10 10 10 9 9 9
12 12 12 12 11 11 11 11 11 11 11 11 11 11 11 11 11 11 11 10 10 10 10 10 10 10 10 10 10 10 10 10 10 10 10 10 10 9 9 9 9 9 9 9
11 11 11 11 11 11 11 11 11 11 11 11 11 11 11 11 11 10 10 10 10 10 10 9 9 9 9 9 9 9 9 9 9 9 9 9 9 9 9 9 9 9 9 8
11 11 11 11 11 11 11 11 11 11 10 10 10 10 10 10 10 10 10 10 9 9 9 9 9 9 9 9 9 9 9 9 9 9 9 9 9 9 9 8 8 8 8 8
Wind_Speed
3 3 1 2 3 1 3 7 7 8 8 10 10 9 7 5 5 6 6 5 5 5 4 4 5 5 5 6 6 7 7 6 6 5 5 5 4 4 4 4 4 3 3 2
4 4 4 4 4 3 0 3 6 7 4 6 7 6 6 5 6 7 6 5 4 4 5 4 5 5 5 5 6 7 7 6 5 4 4 5 5 4 4 3 3 3 3 3
3 5 4 3 2 1 1 1 5 6 6 7 7 8 7 7 8 7 6 5 4 3 3 3 3 4 5 5 5 6 6 5 5 5 5 4 5 4 4 4 4 4 4 3
1 4 1 6 3 3 4 4 3 5 6 8 9 8 6 7 8 7 6 4 3 3 3 2 2 3 4 4 5 5 5 4 4 5 5 4 4 4 4 3 4 4 4 4
3 2 3 5 4 0 4 3 3 6 6 7 8 9 6 4 6 7 6 5 4 3 3 3 3 3 5 5 4 4 4 4 5 5 5 5 4 5 4 3 3 3 3 3
4 3 5 6 6 2 6 2 4 6 7 6 7 5 2 2 6 7 6 5 4 3 3 4 2 4 5 4 4 3 3 4 4 5 5 5 5 4 3 3 3 2 2 2
3 3 4 5 6 3 4 4 0 5 5 4 3 5 5 5 5 5 6 5 4 4 3 2 3 4 4 3 2 2 2 1 2 3 4 5 4 3 3 3 3 2 2 2
2 2 4 6 3 3 4 3 5 6 5 6 5 5 6 6 6 5 5 4 4 3 2 1 3 4 3 2 2 1 1 1 2 2 3 3 3 2 3 3 3 3 3 2
4 4 4 1 3 3 6 6 5 5 5 6 5 5 4 4 5 4 4 3 2 3 2 1 2 4 3 2 1 1 1 0 1 2 2 2 3 3 3 3 3 3 3 3
3 1 2 5 7 6 6 6 6 6 6 6 5 4 3 3 3 3 3 2 2 3 2 1 0 1 2 1 1 2 1 1 1 1 1 1 2 3 3 4 4 3 4 4
2 0 4 5 5 4 5 6 7 5 5 5 5 4 3 2 2 3 2 2 3 2 1 1 1 0 1 1 2 2 1 1 1 1 2 2 1 2 3 4 5 5 5 5
3 4 2 3 2 2 4 4 5 5 4 4 4 3 3 2 1 2 2 1 2 1 1 2 1 1 1 1 2 2 1 1 1 1 1 2 1 1 3 3 4 6 6 5
3 3 3 3 1 3 3 3 4 4 4 3 2 3 3 1 1 2 2 2 2 2 2 1 1 1 3 1 1 2 2 2 2 2 2 2 2 2 2 3 3 3 5 5
2 3 1 0 1 2 3 3 3 3 2 3 2 2 2 1 1 1 2 3 3 2 2 1 1 2 3 1 1 2 2 3 2 3 3 3 2 2 3 3 2 3 3 4
0 2 3 2 1 1 2 3 3 2 1 1 1 1 1 1 1 2 3 3 2 2 2 1 1 3 3 1 1 1 2 2 2 2 2 2 2 2 2 3 3 2 2 2
1 1 3 2 2 1 1 1 2 2 1 1 1 1 1 2 2 2 1 2 3 3 4 3 3 4 3 2 1 1 2 2 2 1 1 1 2 2 2 3 3 3 3 3
1 1 1 2 2 3 2 2 3 2 2 2 2 2 1 1 0 1 2 2 3 4 3 3 4 3 3 2 2 2 2 2 2 1 2 2 2 2 2 3 3 3 4 4
3 4 4 5 4 3 2 2 2 2 2 2 2 2 2 2 2 3 3 2 1 1 3 3 3 3 3 3 2 2 2 2 2 2 2 2 2 2 2 3 3 3 3 3
1 2 2 2 2 2 2 3 3 3 3 2 2 3 3 2 3 3 2 1 2 2 4 4 4 3 3 4 3 2 2 2 2 2 2 2 2 2 2 3 3 4 3 3
1 0 0 1 1 2 2 2 2 2 3 3 3 2 2 3 3 3 2 3 4 5 4 4 3 3 3 4 3 2 2 2 2 2 2 2 2 3 3 4 4 4 4 3
1 1 1 1 1 2 2 2 2 3 3 3 4 4 4 4 3 3 3 4 5 4 4 4 3 3 3 3 3 2 2 2 2 2 2 2 3 3 4 4 4 4 4 4
2 1 2 2 1 2 2 2 2 3 3 3 3 3 3 3 3 3 4 5 5 5 4 3 3 3 4 3 2 3 3 3 3 3 3 3 3 3 3 3 3 3 3 4
2 2 2 2 2 2 3 2 2 2 3 3 3 3 3 4 3 3 4 4 3 5 4 3 4 4 4 3 3 3 4 4 4 4 4 4 4 4 3 3 3 3 3 3
2 2 3 3 1 1 2 3 3 2 1 2 2 2 3 2 3 3 3 3 2 3 3 4 5 5 4 2 2 3 3 4 4 4 4 3 3 3 3 3 3 3 3 3
2 2 1 1 1 2 3 2 1 1 1 1 1 2 2 2 2 2 1 1 2 3 3 4 5 5 3 2 2 3 3 3 4 3 3 3 3 3 3 3 3 3 2 2
2 2 2 2 2 2 2 1 1 1 1 1 2 2 2 1 1 1 1 1 1 2 2 2 3 3 2 2 3 3 3 3 3 2 2 2 3 3 2 2 2 2 2 2
1 2 2 2 2 2 2 2 2 2 2 2 2 2 1 1 1 1 1 1 1 1 1 2 2 1 1 1 1 2 2 2 2 2 2 2 2 2 2 2 2 1 1 1
Wind_Direction
220 250 288 327 326 320 170 177 177 197 189 203 197 189 185 175 158 129 119 122 129 130 133 147 158 163 159 158 159 158 158 163 175 179 176 175 175 177 186 183 177 176 176 178
352 357 7 12 9 28 324 166 155 147 188 206 178 155 151 156 145 128 122 127 135 135 134 142 154 159 153 157 164 160 162 174 176 170 170 178 183 180 183 187 186 181 189 195
304 324 27 345 276 167 41 104 163 179 197 153 138 149 156 151 139 134 132 136 145 149 147 148 148 147 160 163 151 151 161 168 168 170 175 185 189 185 192 198 196 201 206 198
162 32 220 246 269 101 96 49 85 125 141 149 147 138 126 132 140 140 140 136 137 126 110 94 104 115 120 122 131 140 148 162 173 178 187 190 187 195 207 202 201 207 208 207
132 180 258 299 316 26 117 51 52 113 122 126 122 91 66 86 122 133 132 130 132 134 125 108 102 104 108 114 124 136 160 182 192 190 191 192 197 204 210 199 204 210 206 198
143 162 219 256 290 292 105 54 7 94 118 122 102 109 192 131 108 105 104 114 117 116 107 110 117 113 110 117 129 156 188 200 201 196 194 200 203 204 203 191 199 193 206 202
161 194 246 280 304 42 127 213 175 93 103 102 115 169 172 130 111 112 109 108 107 106 116 147 141 124 125 130 169 213 213 198 208 207 203 203 197 191 180 175 170 177 193 209
125 138 258 310 31 115 179 153 109 93 86 83 104 118 125 126 124 113 99 92 101 105 110 154 137 130 136 192 236 222 182 206 223 217 209 195 179 179 176 174 177 195 200 219
167 197 245 352 100 120 123 107 100 103 103 101 106 118 125 133 134 125 122 110 104 119 112 78 137 144 165 230 237 145 112 222 227 214 204 189 183 184 184 181 184 204 204 216
74 27 34 60 70 64 84 93 93 102 106 97 110 117 111 122 135 134 130 118 105 104 108 102 158 144 186 214 156 125 137 276 242 201 209 206 198 189 188 194 199 209 211 219
76 41 37 38 62 76 77 88 88 87 91 101 107 117 123 129 153 159 157 148 129 131 164 214 212 186 199 198 150 142 184 232 225 205 200 199 218 218 212 214 205 204 214 208
203 213 178 256 269 104 102 105 105 96 81 82 100 115 107 115 151 160 160 148 136 154 202 227 217 264 265 213 168 168 203 246 239 215 213 200 198 310 304 257 229 217 214 208
195 188 177 213 193 100 101 108 114 116 117 112 98 116 120 152 183 169 165 161 178 197 211 226 227 286 290 273 192 200 226 240 238 219 209 217 209 205 281 316 295 247 229 217
162 121 82 96 145 102 101 103 100 97 102 112 113 111 121 129 132 156 205 211 196 182 198 220 224 276 281 256 209 246 252 246 231 221 214 217 224 224 216 223 262 289 273 236
291 153 176 184 133 101 108 104 101 93 74 62 94 115 135 149 212 228 226 209 173 171 215 219 232 270 280 260 220 246 255 255 244 225 214 215 217 219 231 235 235 246 266 275
278 121 138 142 160 192 177 139 152 181 191 197 193 196 189 195 217 233 230 187 175 211 224 215 228 247 257 262 255 255 254 265 256 221 217 220 221 218 226 232 230 224 230 235
171 206 204 215 220 218 210 205 197 205 210 210 215 203 170 135 186 262 259 231 210 222 229 230 235 242 251 253 244 241 252 261 251 227 221 223 223 229 229 227 226 223 233 231
230 216 206 206 211 217 230 220 207 205 205 218 212 194 180 181 215 239 248 259 262 280 274 259 242 240 250 252 252 248 244 248 238 234 234 236 236 226 226 227 225 229 245 241
226 215 227 234 209 197 221 236 228 219 212 193 185 197 207 216 224 232 246 245 229 247 265 266 258 251 245 253 256 239 236 240 255 258 253 262 265 245 232 229 228 229 229 228
2 338 224 193 199 201 222 238 229 221 215 192 191 216 245 254 244 237 233 236 236 232 238 255 258 254 251 251 248 214 219 231 242 257 262 263 264 260 245 237 230 227 226 225
292 314 311 279 276 270 245 236 228 227 226 210 205 219 235 252 253 244 235 254 265 245 234 246 248 256 253 246 242 222 227 236 247 255 256 259 263 259 254 247 236 230 228 229
269 287 298 298 311 303 289 273 245 231 232 234 226 224 235 254 262 263 247 236 241 229 224 231 235 241 244 243 229 224 236 242 243 243 244 247 245 245 247 243 241 243 238 233
265 261 269 262 247 266 295 300 267 231 227 229 225 225 228 237 242 241 264 263 243 233 227 232 236 238 244 241 232 229 235 241 244 241 237 237 238 240 238 234 233 240 243 240
256 257 256 247 236 248 277 282 282 272 252 242 241 237 230 246 269 257 246 246 243 243 245 247 249 246 245 243 239 241 247 247 245 242 237 235 237 241 237 236 239 239 242 244
277 280 268 253 262 257 261 279 296 305 288 281 273 263 246 221 225 251 268 256 246 241 252 255 256 256 253 255 245 248 257 256 253 242 233 231 238 240 239 237 239 239 239 236
270 262 261 245 235 235 242 243 249 268 271 280 289 289 289 281 247 248 281 274 256 255 254 251 252 253 252 258 254 248 259 270 264 248 238 238 241 236 234 237 236 232 236 225
290 290 306 314 303 272 248 230 228 249 251 244 272 289 289 282 273 258 256 273 269 257 263 261 249 239 243 245 251 264 271 272 266 258 255 245 233 227 226 223 223 223 214 201
Height
1482 1477 1474 1474 1474 1472 1479 1485 1494 1492 1491 1486 1483 1483 1484 1486 1488 1488 1488 1490 1492 1493 1493 1494 1496 1497 1497 1498 1500 1501 1502 1502 1503 1504 1505 1506 1507 1508 1508 1509 1509 1509 1510 1510
1482 1475 1473 1476 1473 1472 1473 1475 1480 1483 1486 1479 1479 1481 1483 1485 1487 1487 1488 1490 1492 1493 1493 1493 1494 1495 1496 1497 1498 1498 1499 1500 1501 1502 1502 1503 1504 1505 1506 1506 1506 1507 1507 1507
1493 1482 1479 1488 1477 1474 1475 1473 1476 1483 1481 1477 1479 1480 1482 1484 1485 1487 1488 1490 1491 1492 1492 1492 1492 1493 1494 1495 1496 1496 1497 1498 1499 1499 1500 1500 1501 1502 1503 1503 1504 1504 1504 1505
1495 1491 1501 1487 1469 1468 1472 1473 1472 1473 1474 1475 1477 1479 1481 1483 1484 1486 1488 1489 1490 1491 1491 1492 1492 1492 1493 1494 1494 1495 1495 1496 1497 1497 1498 1498 1499 1499 1500 1501 1501 1501 1501 1501
1498 1500 1495 1481 1471 1470 1474 1480 1475 1475 1476 1477 1478 1480 1484 1485 1485 1486 1487 1489 1490 1491 1491 1491 1491 1491 1492 1492 1493 1493 1493 1494 1494 1495 1495 1496 1496 1496 1497 1498 1498 1498 1498 1498
1495 1498 1502 1486 1470 1466 1471 1485 1479 1477 1478 1478 1478 1486 1488 1485 1485 1486 1488 1489 1490 1491 1491 1491 1491 1491 1491 1491 1490 1491 1491 1491 1492 1492 1492 1493 1493 1494 1494 1494 1494 1495 1495 1495
1493 1496 1491 1477 1469 1467 1486 1489 1479 1478 1479 1479 1480 1483 1485 1485 1486 1487 1488 1489 1490 1490 1490 1490 1490 1489 1489 1489 1489 1489 1489 1489 1489 1489 1490 1490 1491 1491 1491 1491 1492 1492 1492 1492
1493 1498 1495 1475 1471 1476 1480 1477 1477 1478 1480 1480 1480 1481 1483 1484 1485 1486 1487 1488 1488 1488 1488 1488 1488 1488 1487 1487 1487 1487 1487 1486 1487 1487 1487 1487 1488 1488 1488 1488 1488 1488 1488 1488
1488 1491 1482 1476 1475 1475 1475 1476 1477 1478 1479 1481 1481 1482 1483 1484 1485 1485 1486 1486 1487 1486 1486 1486 1486 1486 1485 1485 1485 1484 1484 1484 1484 1484 1484 1484 1484 1485 1485 1485 1485 1485 1485 1485
1484 1483 1480 1478 1477 1477 1477 1477 1478 1479 1480 1481 1481 1483 1484 1484 1484 1485 1485 1485 1485 1485 1484 1484 1484 1483 1483 1483 1482 1482 1481 1481 1481 1481 1481 1481 1481 1482 1482 1482 1482 1482 1482 1481
1485 1483 1481 1479 1479 1479 1479 1479 1479 1480 1481 1482 1482 1483 1483 1484 1484 1484 1484 1484 1483 1483 1482 1482 1482 1481 1481 1481 1480 1479 1479 1478 1478 1479 1478 1478 1479 1479 1479 1479 1479 1479 1479 1479
1484 1481 1481 1481 1480 1479 1479 1479 1479 1479 1480 1481 1482 1482 1483 1483 1483 1483 1483 1482 1482 1481 1480 1480 1479 1479 1478 1479 1478 1477 1476 1476 1476 1476 1476 1476 1476 1476 1476 1476 1476 1476 1476 1476
1477 1478 1478 1479 1479 1478 1478 1478 1479 1479 1480 1481 1481 1481 1481 1482 1482 1482 1481 1481 1480 1479 1478 1478 1477 1476 1476 1476 1476 1475 1475 1474 1474 1474 1473 1473 1473 1472 1472 1473 1473 1473 1473 1472
1476 1476 1476 1476 1476 1477 1477 1477 1478 1479 1479 1479 1479 1479 1480 1480 1479 1479 1479 1478 1478 1477 1476 1475 1474 1473 1474 1474 1473 1473 1472 1472 1471 1471 1471 1470 1470 1470 1470 1469 1469 1468 1469 1468
1474 1474 1474 1475 1475 1476 1476 1476 1476 1476 1477 1477 1477 1477 1477 1477 1477 1476 1476 1476 1475 1475 1474 1473 1472 1471 1471 1471 1470 1469 1469 1469 1468 1468 1468 1468 1467 1467 1467 1466 1466 1465 1465 1464
1472 1472 1472 1473 1473 1474 1474 1473 1473 1473 1474 1474 1474 1474 1474 1474 1474 1473 1473 1473 1472 1471 1471 1470 1469 1469 1469 1468 1467 1466 1466 1466 1465 1465 1465 1465 1464 1464 1463 1463 1462 1461 1461 1460
1470 1470 1470 1470 1471 1471 1471 1470 1470 1471 1471 1471 1471 1471 1471 1471 1470 1470 1470 1470 1469 1468 1468 1467 1467 1466 1466 1465 1464 1463 1463 1463 1462 1462 1462 1461 1461 1460 1460 1460 1459 1458 1458 1457
1469 1468 1467 1468 1468 1468 1468 1468 1468 1468 1468 1467 1468 1468 1467 1467 1467 1466 1466 1466 1465 1464 1464 1464 1463 1463 1462 1462 1461 1461 1460 1460 1459 1459 1458 1458 1458 1457 1457 1456 1455 1454 1454 1454
1467 1466 1466 1466 1465 1465 1465 1464 1464 1464 1464 1464 1464 1464 1464 1463 1463 1463 1462 1462 1460 1460 1460 1460 1459 1459 1458 1458 1458 1458 1457 1457 1457 1456 1455 1455 1454 1453 1453 1452 1452 1451 1450 1450
1465 1464 1464 1463 1463 1463 1463 1462 1461 1461 1461 1461 1461 1461 1460 1460 1460 1459 1458 1457 1456 1456 1455 1455 1455 1455 1455 1455 1455 1454 1454 1454 1453 1452 1452 1451 1450 1449 1449 1448 1448 1447 1447 1446
1463 1463 1462 1461 1461 1460 1460 1459 1458 1458 1458 1457 1457 1457 1456 1456 1456 1455 1454 1452 1452 1452 1452 1452 1452 1451 1451 1451 1451 1450 1450 1450 1449 1449 1448 1447 1446 1445 1445 1444 1443 1443 1443 1442
1461 1461 1460 1459 1459 1458 1457 1457 1456 1455 1455 1454 1454 1453 1453 1452 1452 1451 1450 1449 1448 1448 1448 1448 1448 1447 1447 1447 1447 1447 1447 1446 1445 1445 1444 1443 1442 1441 1440 1440 1439 1439 1438 1438
1459 1459 1458 1457 1456 1455 1454 1454 1453 1452 1452 1451 1451 1450 1449 1449 1448 1447 1446 1446 1445 1445 1444 1444 1443 1443 1443 1443 1443 1443 1442 1442 1441 1441 1440 1439 1438 1437 1437 1436 1435 1435 1434 1433
1457 1456 1455 1455 1453 1452 1451 1451 1450 1450 1449 1448 1448 1447 1446 1445 1445 1444 1443 1442 1441 1441 1440 1440 1440 1439 1439 1439 1439 1438 1438 1437 1437 1436 1436 1435 1434 1433 1433 1432 1431 1431 1430 1429
1455 1453 1452 1451 1450 1449 1449 1448 1448 1447 1446 1445 1445 1444 1443 1442 1442 1440 1439 1438 1438 1437 1436 1436 1436 1436 1435 1435 1435 1434 1434 1433 1433 1432 1431 1431 1430 1430 1429 1428 1428 1427 1426 1425
1452 1451 1450 1449 1448 1447 1446 1446 1445 1444 1443 1442 1441 1441 1440 1439 1438 1437 1436 1435 1434 1434 1433 1433 1433 1432 1432 1431 1431 1431 1431 1430 1429 1428 1427 1427 1426 1426 1425 1424 1424 1423 1422 1421
1451 1449 1448 1447 1446 1445 1444 1443 1442 1441 1441 1440 1439 1438 1437 1436 1435 1434 1433 1432 1432 1431 1430 1430 1429 1429 1429 1428 1428 1428 1428 1427 1426 1425 1424 1424 1423 1422 1421 1421 1420 1419 1419 1418